Temperature
19 18 18 18 18 17 17 17 17 17 16 16 16 16 16 16 16 16 16 16 16 16 16 16 16 16 16 16 15 15 15 15 15 15 15 14 14 14 14 14 14 14 14
18 18 18 18 18 18 17 17 17 17 17 16 16 16 16 16 16 15 16 16 16 16 16 15 15 15 15 15 15 15 15 15 15 15 15 14 14 14 14 14 14 14 14
18 18 18 18 18 18 17 17 17 17 16 16 16 16 16 16 15 15 15 15 15 15 15 15 15 15 15 15 15 15 15 15 15 15 15 15 14 14 14 14 14 14 14
19 18 18 18 18 18 17 17 17 17 17 16 16 16 16 16 15 15 15 15 15 15 15 15 15 15 15 15 15 15 15 15 15 15 15 15 14 14 14 13 13 13 13
19 19 18 18 18 18 17 17 17 17 17 16 16 16 16 16 15 15 15 15 15 15 15 15 15 15 15 15 15 15 15 15 15 15 15 15 14 14 14 13 13 13 13
19 19 19 18 18 18 17 17 17 17 17 16 16 16 16 16 15 15 15 15 15 15 15 15 15 15 15 15 15 15 15 15 15 15 15 15 14 14 14 14 13 13 13
19 19 18 18 18 18 17 17 17 17 16 16 16 16 16 16 16 15 15 15 15 15 15 15 15 15 15 15 15 15 15 15 15 15 14 14 14 14 14 14 13 13 13
19 19 19 18 18 18 17 17 17 17 16 16 16 16 16 16 16 16 15 15 15 15 15 15 15 15 15 15 15 14 14 14 14 14 14 14 14 14 14 14 14 13 13
19 19 19 18 18 18 18 17 17 17 16 16 16 16 16 16 16 16 15 15 15 15 15 15 15 15 14 14 14 14 14 14 14 14 14 14 14 14 14 14 14 13 13
19 19 19 18 18 18 18 17 17 17 17 16 16 16 16 16 16 16 15 15 15 15 15 15 15 14 14 14 14 14 14 14 14 14 14 14 13 13 13 13 13 13 13
19 18 19 19 18 18 17 17 17 17 16 16 16 16 16 16 16 15 15 15 15 15 15 14 14 14 14 14 14 14 14 14 14 13 13 13 13 13 13 13 13 13 12
19 19 19 18 18 18 17 17 17 17 17 16 16 16 16 16 16 15 15 15 15 15 14 14 14 14 14 14 14 14 13 13 13 13 13 13 13 13 13 13 13 12 12
19 19 18 18 18 18 18 17 17 17 17 16 16 16 16 16 15 15 15 15 15 15 14 14 14 14 14 14 13 13 13 13 13 13 13 13 13 13 12 12 12 12 12
19 18 18 18 18 18 17 17 17 17 17 16 16 16 16 16 15 15 15 15 15 15 14 14 14 14 14 13 13 13 13 13 13 13 12 12 12 12 12 12 12 12 11
19 18 18 18 18 18 17 17 17 17 16 16 16 16 16 15 15 15 15 15 15 14 14 14 14 14 13 13 13 13 13 13 13 12 12 12 12 12 12 12 11 11 11
19 19 18 18 18 18 17 17 17 17 17 16 16 16 16 15 15 15 15 15 14 14 14 14 14 14 13 13 13 13 13 13 13 12 12 12 12 11 11 11 11 11 11
19 19 19 18 18 18 17 17 17 17 16 16 16 16 16 15 15 15 15 15 14 14 14 14 14 13 13 13 13 13 13 12 12 12 12 12 12 11 11 11 11 10 10
19 19 19 18 18 18 17 17 17 16 16 16 16 16 16 15 15 15 15 14 14 14 14 13 13 13 13 13 13 12 12 12 12 12 12 11 11 11 11 10 10 10 10
20 19 19 19 18 18 17 17 17 16 16 16 16 16 16 15 15 15 15 14 14 14 14 13 13 13 13 12 12 12 12 12 12 11 11 11 11 11 10 10 10 10 10
20 19 19 18 18 18 17 17 17 16 16 16 16 16 15 15 15 15 14 14 14 14 13 13 13 13 12 12 12 12 12 12 11 11 11 11 10 10 10 10 10 10 9
19 19 19 18 18 18 17 17 17 17 16 16 16 15 15 15 15 14 14 14 13 13 13 13 13 12 12 12 12 12 11 11 11 11 11 11 10 10 10 9 9 9 9
19 19 18 18 18 18 17 17 17 17 16 16 16 15 15 15 14 14 14 13 13 13 13 13 12 12 12 12 12 11 11 11 11 11 10 10 10 9 9 9 9 8 8
19 18 18 18 18 17 17 17 17 17 16 16 15 15 15 14 14 14 13 13 13 13 13 12 12 12 12 12 11 11 11 11 11 10 10 10 9 9 9 8 8 8 8
18 18 18 18 17 17 17 17 17 16 16 16 15 15 15 14 14 13 13 13 13 12 12 12 12 12 12 11 11 11 11 10 10 10 10 9 9 9 8 8 8 7 7
18 17 17 17 17 17 17 17 16 16 16 15 15 15 14 14 13 13 13 13 13 13 13 12 12 12 12 11 11 11 11 10 10 10 9 9 9 8 8 8 7 7 7
17 17 17 17 17 16 16 16 16 16 15 15 15 14 14 13 13 13 13 12 12 12 12 12 12 12 11 11 11 10 10 10 9 9 9 9 8 8 8 7 7 7 6
Wind_Speed
8 8 9 9 8 8 7 7 7 5 5 4 4 4 3 3 3 5 8 9 9 10 9 6 5 5 5 4 4 4 5 5 3 5 5 5 6 6 5 5 5 6 7
7 7 8 9 9 8 7 7 7 6 5 4 3 3 3 2 2 3 7 8 9 9 7 6 4 4 5 6 5 4 3 3 4 3 3 3 5 5 6 5 5 5 6
12 11 10 9 9 9 9 8 7 6 6 5 4 4 4 4 3 3 3 5 8 8 8 7 6 5 4 4 4 4 5 3 3 3 3 3 1 1 4 5 5 5 5
11 11 11 10 10 9 8 8 8 7 6 6 7 6 4 3 2 1 1 3 7 8 8 8 7 5 4 4 4 4 3 4 2 2 3 2 3 3 1 3 4 5 5
12 12 12 12 10 9 9 8 8 7 6 6 7 7 5 3 2 2 3 3 4 6 7 7 7 5 4 4 4 5 5 3 3 2 2 3 4 3 3 1 3 4 4
12 11 10 10 8 7 8 7 8 6 6 7 7 7 7 6 5 4 3 2 2 3 5 6 6 6 5 4 4 4 5 4 5 4 4 3 3 2 3 2 1 1 2
12 12 11 11 10 9 8 8 8 6 6 7 6 7 8 7 7 5 4 3 2 2 1 4 4 4 5 5 5 5 5 4 5 4 3 3 2 2 3 3 2 2 2
13 14 13 12 11 11 10 9 8 7 6 7 7 6 7 5 4 5 4 4 3 2 2 4 4 5 6 6 6 4 4 4 5 5 4 3 3 3 3 3 3 3 3
14 14 13 12 11 11 10 10 9 7 7 7 7 7 6 6 5 5 4 3 3 3 4 5 4 4 5 5 5 4 4 4 4 4 5 4 3 3 3 3 3 4 2
13 13 12 12 11 10 9 9 9 8 7 7 7 7 6 6 6 5 5 4 4 4 5 4 4 4 5 5 4 4 4 5 4 3 5 4 3 4 3 3 3 3 4
12 12 12 11 10 9 9 8 8 7 7 7 7 7 6 5 5 5 5 5 4 5 5 5 5 4 4 4 4 4 5 5 4 4 5 4 4 4 4 4 4 4 3
12 12 11 11 10 10 9 9 8 8 7 7 7 7 6 5 5 5 5 5 6 5 5 5 5 4 4 4 5 5 4 4 4 4 5 4 4 5 4 4 4 3 3
11 10 10 11 11 11 10 9 9 8 8 8 8 7 6 6 5 5 5 5 6 5 5 5 5 4 4 4 4 5 5 4 4 4 4 3 4 4 3 4 3 3 3
12 12 11 10 10 10 9 9 9 8 8 8 8 8 7 7 6 5 5 5 6 6 5 5 5 4 4 4 5 5 5 4 3 3 4 3 4 3 3 3 3 3 4
12 13 12 11 10 9 9 9 9 8 9 9 8 8 7 7 7 6 6 6 6 6 6 5 4 4 4 5 6 5 5 5 4 3 3 3 4 5 3 3 2 3 3
13 13 12 12 11 11 10 9 9 8 9 9 8 7 7 7 7 6 6 6 5 5 5 5 5 4 4 6 8 7 5 4 4 3 2 3 4 5 5 5 5 5 4
13 13 13 13 12 12 11 11 10 8 8 9 8 8 8 8 7 7 7 6 5 5 5 4 5 5 5 8 9 9 6 5 3 3 2 2 3 4 3 4 6 5 5
13 13 12 12 11 10 10 10 9 9 9 8 8 8 9 8 7 7 7 6 5 5 5 5 5 5 5 8 9 9 6 5 3 3 3 3 1 2 3 3 3 2 2
12 11 11 11 11 11 11 10 10 9 9 9 9 9 9 9 8 8 7 6 6 5 4 5 5 5 4 8 9 9 5 4 2 2 3 3 2 2 4 4 2 2 2
9 10 10 9 11 10 11 11 10 10 10 10 9 9 9 9 9 8 6 5 5 5 5 4 4 5 4 6 8 8 4 3 2 1 1 2 3 3 4 3 3 1 2
9 10 10 10 11 11 12 11 10 11 10 9 8 8 9 9 8 6 5 6 6 5 5 4 3 3 4 5 7 7 5 5 4 2 1 1 2 2 3 3 2 2 1
8 9 10 9 9 11 12 11 10 10 9 9 9 8 8 8 7 7 6 6 6 6 5 4 2 1 2 3 5 7 7 6 4 3 2 2 3 3 2 2 1 1 2
7 7 9 9 8 9 11 12 10 9 10 10 9 8 7 7 7 8 7 6 6 5 4 4 3 2 2 2 4 6 7 7 4 3 4 3 3 2 1 1 2 2 1
6 6 8 9 8 7 9 9 9 10 11 10 9 8 8 6 6 6 6 6 6 6 5 5 4 3 2 2 2 2 3 4 3 2 3 3 2 2 1 2 2 1 1
6 7 8 8 8 7 7 7 9 11 11 10 9 8 7 7 6 5 5 6 6 8 8 7 6 6 4 5 6 5 4 4 4 3 2 1 1 0 1 1 1 1 1
5 6 6 7 7 8 7 7 9 11 11 9 8 7 6 6 6 5 3 1 3 6 7 8 7 5 6 6 7 7 6 7 7 5 2 2 2 2 2 2 1 1 1
Wind_Direction
182 167 160 152 145 145 140 135 125 127 119 105 98 90 80 65 58 62 67 69 70 78 79 74 65 64 67 63 65 74 64 47 53 73 54 32 35 45 41 50 57 54 54
173 165 159 154 153 155 149 143 138 139 134 130 126 125 120 91 77 58 57 64 70 75 82 80 75 69 69 59 57 68 72 46 44 91 89 46 17 18 29 35 54 50 55
179 173 166 163 157 160 161 156 150 145 138 129 109 92 72 58 50 48 42 46 69 76 82 83 81 75 77 73 62 70 82 74 37 56 115 123 155 7 5 24 37 41 46
181 174 168 168 168 170 165 157 153 149 143 134 127 126 125 129 154 129 80 48 65 75 83 85 84 78 75 76 66 68 75 90 64 27 47 102 141 128 57 357 9 30 43
181 177 175 172 170 166 164 161 153 151 146 140 141 135 132 141 130 103 85 61 48 63 75 82 82 79 77 76 70 66 69 75 84 71 62 63 58 74 118 87 352 10 19
179 175 172 164 163 160 157 157 154 155 152 147 147 146 144 139 126 117 108 83 53 46 57 77 78 79 82 78 77 76 77 73 73 71 73 90 92 92 106 126 80 15 351
174 169 167 165 166 164 163 161 155 159 159 154 154 154 152 149 151 151 144 133 103 81 63 79 78 79 83 83 81 77 75 73 76 75 74 73 82 117 118 117 113 58 350
176 175 175 173 171 170 169 163 161 164 164 161 161 157 153 152 156 159 152 151 150 155 126 106 92 85 84 83 79 73 74 74 75 75 76 74 62 76 100 127 124 81 23
177 178 177 174 172 171 173 169 166 167 165 164 159 154 157 157 157 155 150 150 148 140 117 108 100 88 83 82 82 77 71 76 71 73 74 71 59 64 67 86 114 128 104
178 177 176 177 176 174 172 169 168 169 167 162 161 159 160 161 154 146 148 150 144 127 121 113 104 91 82 80 80 80 76 81 70 74 73 61 54 58 57 68 70 94 129
180 180 180 178 174 171 169 170 168 162 162 161 155 151 156 150 143 149 157 155 143 137 134 128 116 107 97 89 88 88 85 84 71 68 77 65 61 62 53 59 64 67 94
179 179 177 172 171 172 173 173 169 168 170 164 155 156 152 146 146 152 157 150 146 142 137 131 123 118 110 103 105 103 92 92 86 80 80 69 73 63 56 64 66 68 79
175 172 170 172 176 177 176 174 173 173 167 157 154 153 153 150 154 156 150 145 143 136 128 128 130 128 123 115 112 109 103 96 94 97 99 90 84 71 61 67 67 60 62
174 173 176 176 178 179 175 172 174 172 165 158 158 161 165 163 162 156 148 147 144 138 136 136 136 135 129 122 118 112 108 99 90 95 104 101 104 108 97 78 70 75 70
176 177 178 177 176 175 173 171 171 171 166 160 164 172 167 159 151 148 148 144 140 143 141 134 130 126 129 134 131 124 120 111 99 84 85 92 96 95 102 102 105 99 88
180 178 177 176 176 176 174 171 171 171 165 165 170 167 158 154 151 150 144 138 136 136 130 131 130 126 134 136 136 131 125 122 121 112 86 76 73 79 84 92 96 107 111
180 178 179 182 181 179 176 175 174 167 163 165 166 164 161 157 156 152 143 142 144 138 131 132 132 133 139 136 134 133 130 125 130 133 119 93 76 75 81 74 71 70 80
182 183 181 182 181 176 174 170 163 162 162 162 164 162 159 158 155 150 150 149 142 141 141 145 147 144 147 139 134 131 122 117 127 143 142 132 120 102 113 101 72 46 28
182 183 181 176 171 171 168 161 162 163 164 169 172 168 162 159 158 158 158 154 145 145 148 152 151 146 153 143 137 130 124 118 130 146 131 144 161 124 114 110 102 47 346
172 171 168 162 164 170 163 161 167 169 177 179 175 169 163 161 163 165 159 150 149 152 149 148 157 159 164 153 144 141 139 139 142 125 130 140 145 127 117 130 137 151 279
164 160 159 165 172 167 163 166 171 182 183 170 161 162 163 163 161 157 152 147 147 145 149 150 157 164 171 164 159 159 162 163 159 162 193 213 144 132 131 130 157 191 207
152 156 160 168 169 165 165 169 181 182 163 155 155 159 162 163 158 152 152 149 146 147 153 148 151 177 189 172 171 171 172 163 159 180 207 200 154 135 133 123 110 84 62
159 159 159 159 164 169 169 175 181 164 155 155 159 159 154 155 153 155 156 152 153 158 166 163 174 198 208 197 179 174 171 171 176 186 173 160 147 121 87 71 63 66 90
158 158 154 156 164 170 173 176 165 157 155 160 163 159 155 152 151 157 162 163 172 174 176 180 187 193 188 193 185 180 167 165 167 163 149 132 119 105 84 48 37 76 160
154 156 162 167 170 164 164 163 158 154 156 160 161 159 159 158 158 163 171 176 191 190 185 191 185 179 197 210 183 170 175 177 176 146 111 95 84 53 350 334 320 314 327
147 153 160 163 166 162 162 161 160 159 159 160 162 162 161 161 161 157 148 151 175 184 183 181 177 189 194 181 174 176 176 172 158 136 148 184 198 215 236 251 277 279 272
Height
1546 1548 1550 1552 1554 1556 1557 1558 1559 1560 1561 1562 1562 1563 1563 1564 1564 1564 1564 1564 1564 1563 1563 1562 1562 1562 1561 1561 1561 1561 1561 1561 1562 1562 1563 1563 1563 1563 1563 1562 1561 1560 1559
1545 1547 1549 1551 1553 1555 1556 1558 1559 1560 1561 1562 1563 1563 1564 1564 1565 1565 1565 1565 1564 1564 1564 1564 1563 1563 1562 1562 1562 1562 1562 1562 1563 1563 1563 1564 1566 1565 1564 1564 1563 1562 1561
1542 1545 1548 1550 1552 1554 1556 1557 1559 1560 1561 1562 1563 1564 1564 1565 1565 1566 1565 1565 1565 1565 1565 1564 1564 1564 1564 1563 1563 1563 1563 1563 1563 1564 1564 1564 1565 1566 1566 1565 1564 1564 1562
1540 1543 1545 1548 1550 1553 1555 1557 1558 1560 1561 1562 1563 1564 1564 1565 1565 1566 1566 1566 1566 1566 1566 1565 1565 1565 1565 1564 1564 1565 1564 1564 1564 1564 1564 1565 1565 1565 1566 1567 1566 1565 1564
1538 1540 1543 1546 1549 1551 1554 1556 1558 1559 1561 1562 1563 1564 1564 1565 1566 1566 1566 1567 1567 1567 1566 1566 1566 1566 1566 1566 1566 1566 1566 1565 1565 1565 1565 1565 1565 1566 1566 1566 1567 1566 1565
1535 1538 1541 1544 1547 1550 1553 1555 1557 1558 1560 1561 1562 1563 1564 1565 1565 1566 1566 1567 1567 1567 1567 1567 1567 1567 1567 1567 1567 1567 1567 1566 1566 1566 1566 1566 1566 1566 1566 1566 1566 1566 1566
1533 1536 1539 1542 1545 1548 1551 1553 1555 1557 1559 1560 1562 1563 1564 1565 1565 1566 1566 1567 1567 1567 1568 1568 1568 1568 1568 1568 1568 1568 1568 1568 1567 1567 1567 1567 1567 1567 1567 1566 1566 1566 1567
1530 1533 1536 1540 1543 1546 1549 1551 1554 1555 1557 1559 1561 1562 1563 1564 1565 1566 1566 1567 1567 1567 1568 1568 1568 1569 1569 1569 1569 1569 1568 1568 1568 1568 1568 1568 1567 1567 1567 1567 1567 1566 1567
1527 1531 1534 1537 1540 1544 1547 1549 1552 1554 1556 1558 1559 1561 1562 1563 1564 1565 1566 1566 1567 1568 1568 1568 1569 1569 1569 1569 1570 1569 1569 1569 1569 1569 1569 1569 1568 1568 1568 1567 1567 1567 1566
1525 1528 1532 1535 1538 1541 1545 1548 1550 1552 1554 1556 1558 1560 1561 1563 1564 1565 1565 1566 1567 1568 1568 1568 1569 1569 1569 1569 1570 1570 1570 1570 1570 1570 1570 1569 1569 1569 1568 1568 1567 1567 1567
1522 1526 1530 1533 1536 1540 1542 1545 1548 1550 1553 1555 1557 1558 1560 1562 1563 1564 1565 1565 1566 1567 1568 1568 1569 1569 1569 1569 1570 1570 1570 1570 1570 1570 1570 1570 1570 1569 1568 1568 1567 1567 1567
1519 1523 1527 1531 1534 1537 1540 1543 1546 1548 1551 1553 1555 1557 1559 1560 1562 1563 1564 1565 1566 1567 1567 1568 1568 1569 1569 1569 1570 1570 1570 1570 1570 1570 1570 1570 1570 1569 1569 1568 1567 1567 1566
1517 1521 1524 1527 1531 1534 1537 1540 1543 1546 1549 1551 1554 1556 1557 1559 1560 1562 1563 1564 1565 1566 1567 1567 1568 1568 1569 1569 1569 1570 1570 1570 1570 1570 1570 1570 1570 1569 1569 1568 1567 1567 1566
1514 1518 1521 1524 1528 1531 1534 1538 1541 1544 1547 1549 1552 1554 1556 1558 1559 1561 1562 1563 1564 1565 1566 1566 1567 1567 1568 1568 1569 1569 1570 1570 1570 1570 1570 1570 1570 1569 1569 1568 1567 1567 1566
1512 1515 1518 1521 1525 1529 1532 1535 1538 1541 1544 1547 1550 1552 1554 1556 1558 1559 1561 1562 1563 1564 1565 1566 1566 1567 1567 1568 1568 1569 1569 1569 1569 1570 1569 1569 1569 1569 1568 1568 1567 1566 1565
1509 1512 1516 1519 1522 1525 1529 1532 1535 1539 1542 1545 1547 1550 1553 1555 1556 1558 1559 1561 1562 1563 1564 1565 1565 1566 1566 1567 1568 1568 1568 1569 1569 1569 1569 1569 1568 1568 1567 1567 1566 1565 1564
1506 1509 1512 1516 1519 1523 1526 1529 1533 1536 1540 1543 1545 1548 1550 1553 1554 1556 1558 1559 1560 1561 1562 1563 1564 1564 1565 1566 1567 1567 1568 1568 1568 1568 1568 1567 1567 1567 1566 1566 1565 1564 1563
1504 1507 1510 1513 1517 1521 1524 1528 1531 1534 1537 1540 1543 1545 1548 1550 1552 1554 1556 1557 1558 1560 1561 1562 1563 1563 1564 1565 1565 1566 1566 1566 1566 1566 1566 1566 1566 1565 1565 1564 1563 1563 1562
1501 1504 1508 1511 1514 1518 1522 1525 1529 1532 1534 1537 1540 1543 1545 1548 1550 1552 1553 1555 1556 1558 1559 1560 1561 1562 1563 1563 1564 1564 1564 1565 1565 1565 1565 1565 1564 1564 1563 1563 1562 1561 1560
1499 1502 1506 1509 1512 1516 1520 1523 1526 1529 1531 1534 1537 1540 1543 1545 1547 1550 1551 1553 1555 1556 1558 1559 1560 1560 1561 1562 1562 1563 1563 1563 1563 1563 1563 1563 1562 1562 1561 1561 1560 1559 1558
1498 1501 1504 1507 1510 1514 1517 1520 1523 1526 1529 1532 1535 1538 1541 1543 1545 1548 1549 1551 1553 1555 1556 1557 1558 1559 1560 1560 1561 1561 1561 1561 1561 1561 1561 1561 1560 1560 1559 1558 1558 1557 1556
1496 1499 1502 1505 1508 1511 1514 1517 1520 1523 1527 1530 1533 1536 1538 1541 1543 1545 1547 1549 1551 1552 1554 1555 1556 1557 1557 1558 1558 1559 1559 1559 1559 1558 1558 1558 1558 1558 1557 1556 1555 1554 1553
1494 1497 1500 1503 1506 1509 1512 1514 1518 1521 1525 1528 1530 1533 1536 1538 1540 1542 1544 1546 1548 1550 1551 1552 1553 1554 1555 1555 1556 1556 1556 1556 1556 1556 1556 1556 1556 1555 1554 1554 1552 1551 1550
1493 1496 1498 1501 1503 1506 1510 1513 1516 1519 1522 1525 1528 1530 1533 1535 1538 1540 1542 1544 1545 1547 1548 1549 1550 1551 1552 1553 1553 1553 1554 1554 1554 1553 1553 1553 1553 1552 1551 1550 1549 1548 1547
1491 1494 1496 1499 1501 1504 1508 1511 1514 1517 1519 1522 1525 1528 1530 1532 1535 1537 1539 1541 1543 1544 1545 1546 1547 1548 1549 1550 1551 1551 1551 1551 1551 1551 1550 1550 1549 1548 1548 1547 1546 1545 1544
1490 1493 1495 1497 1500 1503 1505 1508 1511 1514 1517 1519 1522 1525 1527 1529 1532 1534 1536 1538 1540 1542 1543 1544 1545 1545 1546 1547 1547 1548 1548 1548 1548 1548 1547 1546 1545 1545 1544 1543 1542 1541 1540